Regional Weather Roundup
Issued by NWS

Home | Current Version | Previous Version | Graphics & Text | Print | Product List | Glossary On
Versions: 1 2 3 4 5 6 7 8 9 10 11 12 13 14 15 16 17 18 19 20 21 22 23 24 25 26 27 28 29 30 31 32 33 34 35 36 37 38 39 40 41 42 43 44 45 46 47 48 49 50
000
ASUS43 KOAX 290810
RWRNE

WEATHER ROUNDUP FOR NEBRASKA
NATIONAL WEATHER SERVICE OMAHA NE
300 AM CDT SAT AUG 29 2015

NOTES: SATELLITE DATA IS BEING USED TO AUGMENT CLOUD COVER ABOVE
       12000 FEET.
       "FAIR" INDICATES FEW OR NO CLOUDS BELOW 12,000 FEET WITH NO
       SIGNIFICANT WEATHER AND/OR OBSTRUCTIONS TO VISIBILITY.

  * THESE STATIONS DO NOT REPORT WEATHER SUCH AS RAIN...SNOW OR FOG.

NEZ001>004-019>022-054>056-290900-
NEBRASKA PANHANDLE

CITY           SKY/WX    TMP DP  RH WIND       PRES   REMARKS
SCOTTSBLUFF    CLEAR     55  50  83 NW7       30.18R
ALLIANCE       CLEAR     51  47  86 W3        30.15F
CHADRON        CLEAR     56  50  80 CALM      30.10F HAZE
KIMBALL        CLEAR     53  44  69 W6        30.22S
SIDNEY         CLEAR     54  45  71 SW10      30.20S
$$

NEZ057>060-069>072-079>082-290900-
SOUTHWEST NEBRASKA

CITY           SKY/WX    TMP DP  RH WIND       PRES   REMARKS
NORTH PLATTE   PTCLDY    52  50  93 N3        30.12F
IMPERIAL       CLEAR     59  56  89 SW5       30.15F
LEXINGTON      CLEAR     58  56  95 W6        30.09F
MCCOOK         CLEAR     58  56  93 W7        30.11F
OGALLALA       CLEAR     55  54  95 CALM      30.15S
$$

NEZ005>010-023>029-035>040-094-290900-
NORTH CENTRAL NEBRASKA

CITY           SKY/WX    TMP DP  RH WIND       PRES   REMARKS
VALENTINE      CLEAR     57  57 100 SW5       30.07S FOG
AINSWORTH      CLEAR     58  57  98 CALM      30.08S
BROKEN BOW     CLEAR     57  55  93 CALM      30.07F
O`NEILL        FOG       58  58  99 SW3       30.05S VSB 1/4
ORD            MOCLDY    56  55  97 CALM      30.04F
THEDFORD         N/A     55  55  97 CALM      30.11S FOG
$$

NEZ041-046>049-061>064-073>077-083>087-290900-
SOUTH CENTRAL NEBRASKA

CITY           SKY/WX    TMP DP  RH WIND       PRES   REMARKS
GRAND ISLAND   CLEAR     57  56  96 N5        30.05S
AURORA         CLOUDY    61  61 100 NE6       30.04S
HASTINGS       CLEAR     60  58  92 CALM      30.05S
HEBRON         PTCLDY    62  58  88 N5        30.03R
HOLDREGE       CLEAR     58  56  92 W3        30.07F
KEARNEY *      CLEAR     57  54  88 W6        30.06F
YORK           CLOUDY    59  59 100 N6        30.03S
$$

NEZ011>018-030>034-042>045-290900-
NORTHEAST NEBRASKA

CITY           SKY/WX    TMP DP  RH WIND       PRES   REMARKS
NORFOLK        CLOUDY    59  57  93 NE8       30.03S
ALBION         CLEAR     56  55  94 CALM      30.03F
BLAIR          CLOUDY    60  59  94 N12       29.98S FOG
COLUMBUS *     CLOUDY   N/A N/A N/A N3        30.03R
FREMONT        CLOUDY    63  60  91 N6        30.00F
TEKAMAH        CLOUDY    62  60  93 N7        30.00S
WAYNE          CLOUDY    60  58  91 N7        30.03S
$$

NEZ050>053-065>068-078-088>093-290900-
SOUTHEAST NEBRASKA

CITY           SKY/WX    TMP DP  RH WIND       PRES   REMARKS
LINCOLN        CLOUDY    64  61  90 N6        30.00S
OMAHA EPPLEY   CLOUDY    63  62  97 N9        29.97S
BEATRICE       CLOUDY    64  60  90 N6        29.99S
FALLS CITY     CLOUDY    66  64  93 NW8       29.94R
NEBRASKA CITY  CLOUDY    63  63  99 N9        29.97R FOG
PLATTSMOUTH    CLOUDY    63  61  94 N5        29.97S FOG
$$

NEZ044-045-051>053-067-290900-
OMAHA AREA

CITY           SKY/WX    TMP DP  RH WIND       PRES   REMARKS
OMAHA EPPLEY   CLOUDY    63  62  97 N9        29.97S
BLAIR          CLOUDY    60  59  94 N12       29.98S FOG
FREMONT        CLOUDY    63  60  91 N6        30.00F
MILLARD        CLOUDY    63  61  92 NW7       29.98S
OFFUTT AFB     CLOUDY    63  62  95 N7        29.96S FOG
PLATTSMOUTH    CLOUDY    63  61  94 N5        29.97S FOG
WAHOO          CLOUDY    62  60  94 N8        30.00S
$$




USA.gov is the U.S. government's official web portal to all federal, state and local government web resources and services.